[[[{"header":{"parameterUnit":"kt","parameterCategory":2,"dx":1,"dy":1,"la1":30.253999710083008,"la2":30.299108505249023,"lo1":-89.0895004272461,"lo2":-89.04439544677734,"nx":28,"ny":28,"refTime":"2022-09-19T21:00:00:Z","depth":0,"parameterNumber":1,"parameterNumberName":"U-component_of_WINDS"},"data":[-2.9722,-2.9863,-2.9917,-3.0104,-3.0183,-3.0321,-3.0386,-3.0478,-3.0563,-3.0734,-3.0842,-3.0909,-3.1015,-3.1157,-3.1276,-3.1303,-3.135,-3.1365,-3.1394,-3.1278,-3.1266,-3.1253,-3.1223,-3.1375,-3.1375,-3.1506,-3.1507,-3.1508,-2.9646,-2.9726,-2.9839,-2.9983,-3.0082,-3.0101,-3.0218,-3.0298,-3.042,-3.0525,-3.0632,-3.0786,-3.0913,-3.1014,-3.1146,-3.1215,-3.123,-3.1247,-3.1242,-3.1258,-3.1137,-3.1104,-3.1234,-3.1234,-3.1234,-3.1234,-3.1234,-3.1234,-2.9521,-2.9603,-2.972,-2.9842,-2.9929,-3.0026,-3.0113,-3.0192,-3.0302,-3.0443,-3.0482,-3.0619,-3.0733,-3.0913,-3.0985,-3.1096,-3.1084,-3.1118,-3.1126,-3.1133,-3.1136,-3.0946,-3.112,-3.1119,-3.1119,-3.1119,-3.1119,0,-2.9445,-2.9483,-2.9591,-2.9718,-2.9809,-2.9911,-3.0012,-3.0068,-3.0161,-3.0247,-3.0378,-3.0461,-3.0625,-3.0753,-3.0885,-3.0952,-3.0976,-3.0983,-3.1007,-3.0989,-3.0961,-3.0979,-3.0781,-3.0975,-3.0974,-3.0974,-3.0973,-3.0973,-2.9322,-2.9409,-2.9553,-2.9624,-2.969,-2.9801,-2.9878,-2.9952,-3.003,-3.0165,-3.0233,-3.0362,-3.0467,-3.0666,-3.0752,-3.0874,-3.0885,-3.0955,-3.0903,-3.0887,-3.0888,-3.0882,-3.0893,-3.0962,-3.0963,-3.0964,-3.0965,0,-2.9249,-2.9329,-2.9479,-2.9611,-2.9647,-2.9735,-2.9848,-2.9931,-2.9995,-3.0119,-3.0152,-3.0251,-3.0376,-3.0451,-3.0606,-3.0642,-3.0794,-3.0802,-3.0758,-3.0763,-3.0834,-3.0826,-3.1047,-3.1081,-3.0924,-3.0925,-3.0926,0,-2.9175,-2.9285,-2.9397,-2.9479,-2.9607,-2.9676,-2.98,-2.9866,-2.996,-3.0058,-3.0097,-3.0187,-3.0267,-3.0371,-3.0422,-3.0559,-3.0587,-3.0622,-3.0634,-3.0618,-3.0613,-3.0657,-3.0649,-3.0655,-3.0654,-3.0653,-3.0652,0,-2.905,-2.9237,-2.9371,-2.9426,-2.9573,-2.9635,-2.97,-2.9804,-2.9876,-2.9982,-3.003,-3.0148,-3.0212,-3.0304,-3.0368,-3.033,-3.0535,-3.0496,-3.0571,-3.0569,-3.0608,-3.0605,-3.0785,-3.065,-3.065,-3.065,-3.0649,0,-2.8999,-2.9104,-2.9286,-2.941,-2.9456,-2.9543,-2.9663,-2.9755,-2.9862,-2.9899,-2.9982,-3.0014,-3.0136,-3.0093,-3.0264,-3.0198,-3.026,-3.0304,-3.031,-3.0323,-3.0272,-3.0364,-3.0528,-3.0548,-3.0341,-3.0339,-3.0336,0,-2.8837,-2.9039,-2.9097,-2.9268,-2.937,-2.9406,-2.9505,-2.9596,-2.9654,-2.975,-2.9814,-2.9921,-2.9904,-2.9947,-3.0023,-3.0092,-3.0179,-3.0082,-3.0222,-3.0226,-3.0194,-3.0346,-3.0351,-3.0485,-3.0304,-3.0308,-3.031,0,-2.8719,-2.8892,-2.8917,-2.8983,-2.9112,-2.9196,-2.9309,-2.943,-2.9491,-2.9586,-2.9683,-2.9834,-2.9829,-2.9898,-2.9933,-3.0007,-3.0122,-2.9989,-2.9993,-3.0012,-3.0292,-3.0298,-3.032,-3.013,-3.0134,-3.0137,-3.0285,0,-2.8628,-2.8735,-2.8807,-2.8943,-2.9019,-2.9126,-2.92,-2.9271,-2.9299,-2.9354,-2.9496,-2.9584,-2.9703,-2.9745,-2.9769,-2.9915,-2.9901,-2.9891,-2.9851,-2.995,-3.0001,-3.0021,-2.9771,-2.9771,-2.977,-2.9769,0,0,-2.8452,-2.8606,-2.8661,-2.877,-2.8838,-2.8868,-2.8976,-2.9045,-2.918,-2.9227,-2.9206,-2.9429,-2.9499,-2.9663,-2.9699,-2.9746,-2.9779,-2.9738,-2.9902,-2.9917,-2.9931,-2.9983,-3.0003,-2.9768,-2.9768,-2.9768,-2.9768,0,-2.8433,-2.8505,-2.861,-2.8684,-2.8794,-2.8847,-2.8872,-2.8985,-2.9024,-2.916,-2.918,-2.9272,-2.9444,-2.9518,-2.9578,-2.9723,-2.973,-2.9754,-2.9809,-2.9893,-2.9909,-2.9923,-2.9977,-2.9996,-2.9766,-2.9766,-2.9766,0,-2.8329,-2.8413,-2.847,-2.862,-2.8691,-2.8792,-2.8771,-2.8877,-2.8954,-2.8974,-2.9107,-2.9164,-2.9266,-2.9409,-2.9475,-2.9457,-2.9683,-2.9621,-2.9627,-2.9635,-2.972,-2.9738,-2.9755,-2.9539,-2.9538,-2.9537,0,0,-2.8302,-2.84,-2.8507,-2.862,-2.8664,-2.8742,-2.8801,-2.8832,-2.8923,-2.8959,-2.903,-2.9118,-2.922,-2.9284,-2.9382,-2.9528,-2.9555,-2.959,-2.9601,-2.9609,-2.9622,-2.9709,-2.9727,-2.9533,-2.9533,-2.9533,0,0,-2.8287,-2.8417,-2.8427,-2.8567,-2.8654,-2.8765,-2.8832,-2.8846,-2.894,-2.8935,-2.899,-2.9015,-2.9149,-2.9202,-2.9141,-2.9369,-2.9329,-2.9344,-2.9328,-2.9343,-2.9354,-2.9337,-2.9126,0,0,0,0,0,-2.8301,-2.8402,-2.8409,-2.8443,-2.8629,-2.8762,-2.8786,-2.8834,-2.8806,-2.8859,-2.8922,-2.8924,-2.9182,-2.9129,-2.9161,-2.9227,-2.9481,-2.949,-2.9499,-2.9513,-2.9527,-2.954,0,0,0,0,0,0,-2.8315,-2.8356,-2.8407,-2.8521,-2.8563,-2.8758,-2.8722,-2.8738,-2.8802,-2.8801,-2.8912,-2.8928,-2.897,-2.9115,-2.9144,-2.9206,-2.9116,-2.9485,-2.9492,-2.9499,-2.9518,-2.953,-2.954,0,0,0,0,0,-2.8326,-2.8359,-2.8644,-2.852,-2.8557,-2.8645,-2.8719,-2.8732,-2.8781,-2.8876,-2.8891,-2.8812,-2.897,-2.8997,-2.9132,-2.9192,-2.9097,-2.9108,-2.949,-2.9496,-2.9501,-2.9524,0,0,0,0,0,0,-2.8335,-2.8372,-2.8653,-2.8666,-2.8484,-2.8635,-2.866,-2.8726,-2.8853,-2.887,-2.8777,-2.8775,-2.8972,-2.8993,-2.9013,-2.9184,-2.9081,-2.9092,-2.9099,-2.9494,-2.9499,-2.9503,0,0,0,0,0,0,-2.8355,-2.8383,-2.8659,-2.8611,-2.8619,-2.8626,-2.8648,-2.8767,-2.8854,-2.8747,-2.875,-2.8775,-2.894,-2.899,-2.9006,-2.919,-2.9069,-2.9079,-2.9087,-2.9091,-2.9498,-2.9502,0,0,0,0,0,0,-2.8367,-2.8392,-2.8608,-2.8614,-2.8621,-2.8771,-2.8732,-2.8919,-2.8815,-2.8741,-2.8807,-2.8803,-2.8937,-2.8955,-2.9001,-2.9178,-2.9187,-2.907,-2.9077,-2.9081,-2.9085,0,0,0,0,0,0,0,-2.8378,-2.8204,-2.8576,-2.8617,-2.8623,-2.8786,-2.8789,-2.8793,-2.8814,-2.8811,-2.8808,-2.8805,-2.9012,-2.9023,-2.9034,-2.9168,0,0,-2.9069,-2.9074,0,0,0,0,0,0,0,0,-2.8194,-2.8201,-2.8576,-2.8579,-2.8581,-2.8786,-2.8789,-2.8792,-2.8814,-2.8811,-2.8808,-2.8806,-2.9015,-2.9024,-2.9033,0,0,0,0,0,0,0,0,0,0,0,0,0,0,0,-2.8576,-2.8579,0,-2.8787,-2.8789,-2.8792,-2.8813,-2.8811,-2.8809,-2.8807,-2.9017,-2.9024,-2.9032,0,0,0,0,0,0,0,0,0,0,0,0,0,0,0,0,0,0,0,0,0,0,0,0,0,0,0,0,0,0,0,0,0,0,0,0,0,0,0,0,0,0,0,0,0,0,0,0,0,0,0,0,0,0,0,0,0,0,0,0,0,0,0,0,0,0,0,0,0]}],[{"header":{"parameterUnit":"kt","parameterCategory":2,"dx":1,"dy":1,"la1":30.253999710083008,"la2":30.299108505249023,"lo1":-89.0895004272461,"lo2":-89.04439544677734,"nx":28,"ny":28,"refTime":"2022-09-19T21:00:00:Z","depth":0,"parameterNumber":2,"parameterNumberName":"V-component_of_WINDS"},"data":[-0.7788,-0.7858,-0.7906,-0.801,-0.8072,-0.8154,-0.82,-0.8265,-0.8331,-0.844,-0.8512,-0.8574,-0.8665,-0.8769,-0.8855,-0.8883,-0.8916,-0.8904,-0.8939,-0.8942,-0.8946,-0.895,-0.8935,-0.891,-0.891,-0.8928,-0.8928,-0.8928,-0.7784,-0.7844,-0.7912,-0.8013,-0.8074,-0.8113,-0.82,-0.825,-0.8324,-0.8407,-0.8481,-0.8583,-0.8673,-0.8772,-0.887,-0.891,-0.8938,-0.8933,-0.8932,-0.8947,-0.8952,-0.8934,-0.8909,-0.8909,-0.8909,-0.8909,-0.8909,-0.8909,-0.779,-0.783,-0.7918,-0.7995,-0.8059,-0.8128,-0.8177,-0.8249,-0.8322,-0.8424,-0.8474,-0.8562,-0.8659,-0.8805,-0.8868,-0.8943,-0.8959,-0.8972,-0.8976,-0.8978,-0.8973,-0.8939,-0.8962,-0.8963,-0.8963,-0.8963,-0.8963,0,-0.781,-0.7847,-0.7917,-0.8001,-0.8061,-0.8133,-0.8209,-0.8241,-0.8346,-0.8403,-0.849,-0.8551,-0.8672,-0.8765,-0.887,-0.8936,-0.8991,-0.9003,-0.9013,-0.8989,-0.8954,-0.8974,-0.8981,-0.9003,-0.9003,-0.9004,-0.9004,-0.9004,-0.7821,-0.7862,-0.798,-0.8022,-0.8076,-0.8145,-0.8198,-0.8286,-0.834,-0.845,-0.8486,-0.8578,-0.8657,-0.8795,-0.8889,-0.8983,-0.9012,-0.9014,-0.9027,-0.9002,-0.9014,-0.9011,-0.9017,-0.901,-0.901,-0.9009,-0.9009,0,-0.7822,-0.7903,-0.7984,-0.8099,-0.8129,-0.817,-0.8272,-0.832,-0.8387,-0.8464,-0.8487,-0.8596,-0.8684,-0.8778,-0.89,-0.8947,-0.9025,-0.905,-0.8991,-0.9001,-0.9014,-0.9012,-0.9037,-0.9045,-0.9071,-0.907,-0.907,0,-0.7864,-0.7917,-0.8035,-0.8078,-0.814,-0.8227,-0.8289,-0.8353,-0.8436,-0.8497,-0.8571,-0.8628,-0.8739,-0.8811,-0.8881,-0.8961,-0.8985,-0.9026,-0.9045,-0.9021,-0.9015,-0.9055,-0.9057,-0.9083,-0.9083,-0.9083,-0.9082,0,-0.7859,-0.7985,-0.8055,-0.8098,-0.8228,-0.826,-0.8317,-0.8412,-0.8465,-0.8549,-0.8585,-0.8679,-0.8731,-0.8805,-0.8892,-0.8898,-0.8993,-0.9019,-0.9036,-0.9034,-0.9055,-0.9052,-0.9048,-0.9082,-0.9082,-0.9082,-0.9082,0,-0.7907,-0.7983,-0.8073,-0.8183,-0.8213,-0.8262,-0.8356,-0.8419,-0.8514,-0.8559,-0.8628,-0.869,-0.8766,-0.8785,-0.8894,-0.8875,-0.8924,-0.8971,-0.8974,-0.8988,-0.9007,-0.8994,-0.8979,-0.8982,-0.8999,-0.8998,-0.8998,0,-0.7879,-0.7991,-0.8066,-0.8152,-0.8216,-0.8293,-0.835,-0.8431,-0.8496,-0.8564,-0.8639,-0.8719,-0.8752,-0.8791,-0.8831,-0.8914,-0.8938,-0.8913,-0.902,-0.9022,-0.8991,-0.8978,-0.8952,-0.8971,-0.899,-0.8991,-0.8992,0,-0.7868,-0.8023,-0.8033,-0.8085,-0.8204,-0.826,-0.8324,-0.842,-0.8461,-0.8546,-0.8605,-0.8719,-0.875,-0.8813,-0.8875,-0.8913,-0.8924,-0.8942,-0.8946,-0.8937,-0.8994,-0.8969,-0.8972,-0.8959,-0.896,-0.8961,-0.8986,0,-0.7923,-0.799,-0.802,-0.8133,-0.819,-0.8249,-0.8344,-0.8393,-0.8444,-0.8511,-0.8601,-0.8696,-0.88,-0.8828,-0.8881,-0.8936,-0.8943,-0.8975,-0.9003,-0.8992,-0.9004,-0.9008,-0.8978,-0.8979,-0.8981,-0.8982,0,0,-0.7878,-0.7975,-0.8057,-0.812,-0.8174,-0.8254,-0.8309,-0.8372,-0.8498,-0.8535,-0.855,-0.8725,-0.8804,-0.8904,-0.8908,-0.895,-0.897,-0.897,-0.8996,-0.8997,-0.8999,-0.9009,-0.9011,-0.8984,-0.8984,-0.8985,-0.8985,0,-0.7917,-0.7984,-0.8035,-0.8102,-0.8204,-0.8272,-0.8284,-0.8402,-0.8449,-0.8535,-0.8606,-0.8672,-0.881,-0.8884,-0.894,-0.8959,-0.9012,-0.8984,-0.8961,-0.9005,-0.9004,-0.9004,-0.9013,-0.9015,-0.8988,-0.8988,-0.8988,0,-0.7924,-0.8007,-0.8041,-0.8164,-0.8233,-0.83,-0.8349,-0.8418,-0.847,-0.8561,-0.8647,-0.8714,-0.8822,-0.8903,-0.8943,-0.8959,-0.9044,-0.9035,-0.9031,-0.9039,-0.9086,-0.9085,-0.9085,-0.9093,-0.9093,-0.9093,0,0,-0.7946,-0.8008,-0.8128,-0.818,-0.8218,-0.832,-0.8366,-0.8422,-0.8513,-0.8549,-0.8636,-0.8726,-0.8809,-0.8861,-0.8943,-0.9018,-0.905,-0.9044,-0.9039,-0.9035,-0.9039,-0.9086,-0.9085,-0.9093,-0.9093,-0.9093,0,0,-0.7959,-0.8096,-0.813,-0.8202,-0.8283,-0.8408,-0.8438,-0.8485,-0.8568,-0.8573,-0.8677,-0.8705,-0.8783,-0.8848,-0.8832,-0.8956,-0.8981,-0.8987,-0.8911,-0.8906,-0.8901,-0.8885,-0.8902,0,0,0,0,0,-0.8047,-0.8078,-0.8108,-0.8134,-0.8293,-0.839,-0.8412,-0.8495,-0.8509,-0.8531,-0.8612,-0.8665,-0.8861,-0.8849,-0.8877,-0.8894,-0.9089,-0.909,-0.9091,-0.9011,-0.9004,-0.8999,0,0,0,0,0,0,-0.8058,-0.8089,-0.8107,-0.8231,-0.8268,-0.839,-0.8433,-0.8457,-0.8509,-0.8517,-0.8647,-0.8669,-0.8745,-0.8841,-0.8865,-0.8879,-0.8894,-0.909,-0.909,-0.9091,-0.9009,-0.9003,-0.8999,0,0,0,0,0,-0.8067,-0.8092,-0.8325,-0.8232,-0.8264,-0.8381,-0.8432,-0.8453,-0.8495,-0.8621,-0.8644,-0.8553,-0.8743,-0.8769,-0.8856,-0.8866,-0.8878,-0.8887,-0.909,-0.909,-0.9091,-0.9006,0,0,0,0,0,0,-0.8074,-0.8113,-0.8333,-0.8346,-0.8225,-0.8376,-0.8402,-0.8449,-0.8598,-0.8621,-0.8532,-0.8536,-0.8742,-0.8762,-0.8782,-0.8857,-0.8866,-0.8874,-0.888,-0.909,-0.9091,-0.9091,0,0,0,0,0,0,-0.8101,-0.8124,-0.834,-0.8327,-0.8339,-0.8371,-0.8394,-0.8482,-0.8599,-0.8501,-0.8509,-0.8532,-0.8715,-0.8758,-0.8773,-0.8906,-0.8856,-0.8864,-0.887,-0.8873,-0.9091,-0.9091,0,0,0,0,0,0,-0.8112,-0.8132,-0.8324,-0.8333,-0.8344,-0.8497,-0.8451,-0.8611,-0.8581,-0.8493,-0.8581,-0.8581,-0.8709,-0.8727,-0.8767,-0.8893,-0.8903,-0.8856,-0.8862,-0.8866,-0.8868,0,0,0,0,0,0,0,-0.8121,-0.7965,-0.8255,-0.8339,-0.8349,-0.8466,-0.847,-0.8474,-0.8581,-0.8581,-0.8581,-0.8581,-0.8809,-0.8818,-0.8827,-0.8882,0,0,-0.8855,-0.8859,0,0,0,0,0,0,0,0,-0.7959,-0.7964,-0.8255,-0.8258,-0.8261,-0.8467,-0.847,-0.8473,-0.8581,-0.8581,-0.8581,-0.8581,-0.8812,-0.8819,-0.8826,0,0,0,0,0,0,0,0,0,0,0,0,0,0,0,-0.8256,-0.8258,0,-0.8467,-0.847,-0.8472,-0.8581,-0.8581,-0.8581,-0.8581,-0.8814,-0.882,-0.8826,0,0,0,0,0,0,0,0,0,0,0,0,0,0,0,0,0,0,0,0,0,0,0,0,0,0,0,0,0,0,0,0,0,0,0,0,0,0,0,0,0,0,0,0,0,0,0,0,0,0,0,0,0,0,0,0,0,0,0,0,0,0,0,0,0,0,0,0,0]}]]]